CES258 ZUCK-ZSJN

Flight info

Callsign CES258
Flight time 1h 42m
Altitude 37100
Route OVNUL1Z OVNUL W677 IGIRO W4 WXI W59 UBSIS UBSIS6W
Aircraft A346/H-SDE2E3FGHIJ3J4J5M1RWXY/LB1D1

Departure

Time 2026-05-05 06:30
Airport Chongqing Jiangbei International Airport (ZUCK)

Arrival

Time 2026-05-05 08:12
Airport Jinan Yaoqiang International Airport (ZSJN)
Time Latitude Longitude Altitude Speed Heading
2026-05-05 06:23 29.71745 106.64879 1363 ft 0 kts 187°
2026-05-05 06:24 29.71743 106.64879 1363 ft 1 kts 187°
2026-05-05 06:24 29.71721 106.64874 1364 ft 10 kts 192°
2026-05-05 06:25 29.71674 106.64816 1366 ft 12 kts 247°
2026-05-05 06:25 29.71424 106.64681 1366 ft 45 kts 198°
2026-05-05 06:25 29.71225 106.64616 1366 ft 43 kts 194°
2026-05-05 06:25 29.70972 106.64535 1366 ft 32 kts 197°
2026-05-05 06:26 29.70761 106.64461 1366 ft 32 kts 197°
2026-05-05 06:26 29.70576 106.64396 1366 ft 28 kts 197°
2026-05-05 06:26 29.70427 106.64344 1367 ft 11 kts 224°
2026-05-05 06:26 29.70421 106.64330 1368 ft 0 kts 279°
2026-05-05 06:27 29.70426 106.64300 1368 ft 5 kts 279°
2026-05-05 06:27 29.70433 106.64248 1368 ft 8 kts 283°
2026-05-05 06:28 29.70444 106.64202 1367 ft 0 kts 285°
2026-05-05 06:28 29.70446 106.64195 1367 ft 2 kts 285°
2026-05-05 06:28 29.70451 106.64173 1367 ft 4 kts 285°
2026-05-05 06:28 29.70465 106.64121 1370 ft 8 kts 289°
2026-05-05 06:29 29.70497 106.64083 1371 ft 7 kts 345°
2026-05-05 06:29 29.70548 106.64089 1369 ft 9 kts 16°
2026-05-05 06:29 29.70785 106.64172 1368 ft 78 kts 16°
2026-05-05 06:29 29.71564 106.64441 1367 ft 153 kts 16°
2026-05-05 06:30 29.72783 106.64862 1398 ft 208 kts 14°
2026-05-05 06:30 29.74224 106.65278 2221 ft 215 kts 17°
2026-05-05 06:30 29.75636 106.65746 3426 ft 208 kts 21°
2026-05-05 06:30 29.77037 106.66261 4348 ft 215 kts 21°
2026-05-05 06:31 29.78522 106.66807 4868 ft 233 kts 20°
2026-05-05 06:31 29.80136 106.67389 5433 ft 252 kts 19°
2026-05-05 06:31 29.81874 106.68002 6014 ft 270 kts 18°
2026-05-05 06:31 29.83736 106.68649 6555 ft 288 kts 17°
2026-05-05 06:32 29.85692 106.69324 7213 ft 297 kts 17°
2026-05-05 06:32 29.87681 106.70011 8034 ft 300 kts 16°
2026-05-05 06:32 29.89686 106.70705 8894 ft 302 kts 15°
2026-05-05 06:32 29.91711 106.71406 9728 ft 305 kts 15°
2026-05-05 06:33 29.93765 106.72114 10371 ft 313 kts 14°
2026-05-05 06:33 29.95904 106.72847 10796 ft 330 kts 15°
2026-05-05 06:33 29.98163 106.73625 11139 ft 348 kts 15°
2026-05-05 06:33 30.00539 106.74447 11483 ft 366 kts 15°
2026-05-05 06:34 30.03037 106.75313 11847 ft 384 kts 15°
2026-05-05 06:34 30.05646 106.76219 12256 ft 397 kts 15°
2026-05-05 06:34 30.08307 106.77148 13019 ft 401 kts 15°
2026-05-05 06:34 30.10946 106.78068 13849 ft 402 kts 14°
2026-05-05 06:35 30.13630 106.79002 14621 ft 404 kts 15°
2026-05-05 06:35 30.16322 106.79940 15418 ft 405 kts 15°
2026-05-05 06:35 30.18995 106.80991 16164 ft 407 kts 19°
2026-05-05 06:35 30.21628 106.82244 16881 ft 410 kts 22°
2026-05-05 06:36 30.24208 106.83684 17636 ft 413 kts 24°
2026-05-05 06:36 30.26774 106.85194 18309 ft 415 kts 24°
2026-05-05 06:36 30.29355 106.86727 18859 ft 419 kts 24°
2026-05-05 06:36 30.31959 106.88275 19398 ft 423 kts 24°
2026-05-05 06:37 30.34588 106.89836 19946 ft 426 kts 24°
2026-05-05 06:37 30.37240 106.91411 20480 ft 430 kts 24°
2026-05-05 06:37 30.39919 106.93005 20988 ft 434 kts 23°
2026-05-05 06:37 30.42621 106.94604 21507 ft 438 kts 24°
2026-05-05 06:38 30.45347 106.96217 22054 ft 442 kts 24°
2026-05-05 06:38 30.48094 106.97849 22573 ft 446 kts 23°
2026-05-05 06:38 30.50872 106.99502 23071 ft 451 kts 23°
2026-05-05 06:38 30.53665 107.01174 23547 ft 455 kts 24°
2026-05-05 06:39 30.56433 107.02998 24014 ft 459 kts 27°
2026-05-05 06:39 30.59136 107.05006 24494 ft 463 kts 30°
2026-05-05 06:39 30.61789 107.07170 25029 ft 466 kts 31°
2026-05-05 06:39 30.64430 107.09372 25497 ft 469 kts 31°
2026-05-05 06:40 30.67090 107.11599 25953 ft 473 kts 31°
2026-05-05 06:40 30.69769 107.13843 26441 ft 475 kts 31°
2026-05-05 06:40 30.72462 107.16099 26916 ft 478 kts 31°
2026-05-05 06:40 30.75171 107.18367 27392 ft 481 kts 31°
2026-05-05 06:41 30.77898 107.20649 27863 ft 485 kts 31°
2026-05-05 06:41 30.80645 107.22950 28338 ft 488 kts 31°
2026-05-05 06:41 30.83409 107.25265 28809 ft 491 kts 31°
2026-05-05 06:41 30.86152 107.27565 29287 ft 494 kts 31°
2026-05-05 06:42 30.88937 107.29902 29922 ft 493 kts 30°
2026-05-05 06:42 30.91709 107.32231 30606 ft 489 kts 30°
2026-05-05 06:42 30.94455 107.34539 31321 ft 484 kts 31°
2026-05-05 06:42 30.97170 107.36822 32054 ft 479 kts 31°
2026-05-05 06:43 30.99858 107.39084 32762 ft 474 kts 31°
2026-05-05 06:43 31.02527 107.41303 33502 ft 468 kts 29°
2026-05-05 06:43 31.05233 107.43361 34188 ft 461 kts 26°
2026-05-05 06:43 31.07984 107.45247 34758 ft 456 kts 24°
2026-05-05 06:44 31.10748 107.47050 35207 ft 455 kts 23°
2026-05-05 06:44 31.13524 107.48838 35574 ft 456 kts 22°
2026-05-05 06:44 31.16309 107.50629 35871 ft 458 kts 22°
2026-05-05 06:44 31.19105 107.52430 36193 ft 459 kts 22°
2026-05-05 06:45 31.21906 107.54239 36485 ft 460 kts 22°
2026-05-05 06:45 31.24714 107.56056 36755 ft 462 kts 22°
2026-05-05 06:45 31.27534 107.57881 36898 ft 464 kts 22°
2026-05-05 06:46 31.33189 107.61545 36908 ft 465 kts 22°
2026-05-05 06:46 31.38848 107.65221 36920 ft 465 kts 22°
2026-05-05 06:47 31.44504 107.68900 36906 ft 464 kts 22°
2026-05-05 06:47 31.50152 107.72581 36903 ft 464 kts 22°
2026-05-05 06:48 31.55798 107.76265 36913 ft 464 kts 22°
2026-05-05 06:48 31.61356 107.80066 36905 ft 467 kts 26°
2026-05-05 06:49 31.66713 107.84552 36903 ft 472 kts 31°
2026-05-05 06:49 31.71779 107.89411 36907 ft 473 kts 32°
2026-05-05 06:50 31.76860 107.94344 36893 ft 474 kts 32°
2026-05-05 06:50 31.81946 107.99286 36899 ft 474 kts 32°
2026-05-05 06:51 31.87024 108.04226 36912 ft 473 kts 32°
2026-05-05 06:51 31.92094 108.09159 36906 ft 473 kts 32°
2026-05-05 06:52 31.97164 108.14100 36899 ft 473 kts 32°
2026-05-05 06:52 32.02209 108.19096 36896 ft 476 kts 35°
2026-05-05 06:53 32.06772 108.24860 36896 ft 486 kts 44°
2026-05-05 06:53 32.10559 108.31569 36902 ft 496 kts 54°
2026-05-05 06:54 32.13407 108.39088 36895 ft 506 kts 63°
2026-05-05 06:54 32.15659 108.46912 36903 ft 505 kts 64°
2026-05-05 06:55 32.17890 108.54787 36902 ft 505 kts 64°
2026-05-05 06:55 32.20479 108.62442 36897 ft 495 kts 55°
2026-05-05 06:56 32.24230 108.69110 36878 ft 481 kts 42°
2026-05-05 06:56 32.28953 108.74554 36920 ft 469 kts 31°
2026-05-05 06:57 32.34305 108.78768 36879 ft 459 kts 24°
2026-05-05 06:57 32.39782 108.82673 36882 ft 459 kts 24°
2026-05-05 06:58 32.45252 108.86578 36876 ft 459 kts 24°
2026-05-05 06:58 32.50714 108.90494 36875 ft 459 kts 24°
2026-05-05 06:59 32.56171 108.94416 36869 ft 459 kts 24°
2026-05-05 06:59 32.61629 108.98344 36867 ft 459 kts 24°
2026-05-05 07:00 32.67084 109.02278 36869 ft 459 kts 24°
2026-05-05 07:00 32.72545 109.06224 36875 ft 460 kts 24°
2026-05-05 07:01 32.78010 109.10177 36881 ft 459 kts 24°
2026-05-05 07:01 32.83476 109.14137 36894 ft 459 kts 24°
2026-05-05 07:02 32.88891 109.18069 36881 ft 458 kts 24°
2026-05-05 07:02 32.94322 109.22017 36885 ft 458 kts 24°
2026-05-05 07:03 32.99760 109.25977 36898 ft 457 kts 24°
2026-05-05 07:03 33.05179 109.29925 36890 ft 457 kts 24°
2026-05-05 07:04 33.10609 109.33888 36899 ft 458 kts 25°
2026-05-05 07:04 33.16044 109.37865 36899 ft 457 kts 24°
2026-05-05 07:05 33.21462 109.41838 36906 ft 456 kts 25°
2026-05-05 07:05 33.26881 109.45815 36905 ft 462 kts 24°
2026-05-05 07:06 33.32361 109.49909 36895 ft 469 kts 28°
2026-05-05 07:06 33.37209 109.55303 36896 ft 485 kts 43°
2026-05-05 07:07 33.40840 109.62271 36907 ft 502 kts 59°
2026-05-05 07:07 33.42833 109.70404 36892 ft 518 kts 75°
2026-05-05 07:08 33.43708 109.79022 36895 ft 522 kts 77°
2026-05-05 07:08 33.44498 109.87652 36899 ft 520 kts 77°
2026-05-05 07:09 33.45306 109.96269 36889 ft 520 kts 77°
2026-05-05 07:09 33.46127 110.04887 36887 ft 520 kts 77°
2026-05-05 07:10 33.46937 110.13453 36884 ft 520 kts 77°
2026-05-05 07:10 33.47746 110.22056 36887 ft 519 kts 77°
2026-05-05 07:11 33.48547 110.30662 36880 ft 519 kts 77°
2026-05-05 07:11 33.49309 110.37842 36870 ft 513 kts 71°
2026-05-05 07:11 33.50739 110.43156 36876 ft 500 kts 58°
2026-05-05 07:12 33.52389 110.46776 36884 ft 490 kts 49°
2026-05-05 07:12 33.55999 110.51840 36882 ft 474 kts 35°
2026-05-05 07:13 33.61372 110.56162 36866 ft 460 kts 20°
2026-05-05 07:13 33.67141 110.59491 36868 ft 460 kts 19°
2026-05-05 07:14 33.72922 110.62784 36881 ft 460 kts 19°
2026-05-05 07:14 33.78697 110.66088 36868 ft 459 kts 19°
2026-05-05 07:15 33.84462 110.69398 36860 ft 458 kts 19°
2026-05-05 07:15 33.90215 110.72705 36864 ft 459 kts 19°
2026-05-05 07:16 33.95978 110.76025 36864 ft 458 kts 20°
2026-05-05 07:16 34.01718 110.79338 36857 ft 457 kts 19°
2026-05-05 07:17 34.07463 110.82656 36852 ft 458 kts 20°
2026-05-05 07:17 34.13181 110.85966 36837 ft 459 kts 20°
2026-05-05 07:18 34.18948 110.89311 36849 ft 460 kts 20°
2026-05-05 07:18 34.24710 110.92657 36831 ft 459 kts 20°
2026-05-05 07:19 34.30470 110.96008 36823 ft 459 kts 20°
2026-05-05 07:19 34.36139 110.99649 36813 ft 465 kts 26°
2026-05-05 07:20 34.41370 111.04361 36818 ft 473 kts 34°
2026-05-05 07:20 34.45994 111.10126 36808 ft 481 kts 44°
2026-05-05 07:21 34.49885 111.16829 36833 ft 489 kts 51°
2026-05-05 07:21 34.53460 111.23872 36823 ft 490 kts 52°
2026-05-05 07:22 34.57016 111.30940 36817 ft 490 kts 52°
2026-05-05 07:22 34.60577 111.38012 36826 ft 491 kts 51°
2026-05-05 07:23 34.64140 111.45087 36831 ft 490 kts 52°
2026-05-05 07:23 34.67695 111.52164 36819 ft 490 kts 52°
2026-05-05 07:24 34.71224 111.59199 36816 ft 490 kts 52°
2026-05-05 07:24 34.74770 111.66281 36818 ft 490 kts 52°
2026-05-05 07:25 34.78315 111.73377 36828 ft 490 kts 52°
2026-05-05 07:25 34.81853 111.80473 36844 ft 490 kts 52°
2026-05-05 07:26 34.85390 111.87582 36829 ft 490 kts 52°
2026-05-05 07:26 34.88928 111.94683 36829 ft 490 kts 52°
2026-05-05 07:27 34.92492 112.01755 36830 ft 490 kts 52°
2026-05-05 07:27 34.96055 112.08839 36828 ft 489 kts 52°
2026-05-05 07:28 34.99612 112.15928 36850 ft 490 kts 52°
2026-05-05 07:28 35.03163 112.23029 36837 ft 490 kts 52°
2026-05-05 07:29 35.06715 112.30147 36842 ft 491 kts 52°
2026-05-05 07:29 35.10266 112.37278 36859 ft 491 kts 52°
2026-05-05 07:30 35.13808 112.44410 36853 ft 490 kts 52°
2026-05-05 07:30 35.19096 112.55075 36855 ft 491 kts 52°
2026-05-05 07:31 35.22655 112.62222 36850 ft 491 kts 52°
2026-05-05 07:31 35.26236 112.69341 36846 ft 490 kts 52°
2026-05-05 07:32 35.29811 112.76462 36859 ft 491 kts 52°
2026-05-05 07:32 35.33389 112.83609 36875 ft 491 kts 52°
2026-05-05 07:33 35.36960 112.90767 36878 ft 492 kts 52°
2026-05-05 07:33 35.40524 112.97927 36889 ft 491 kts 52°
2026-05-05 07:34 35.44064 113.05052 36909 ft 492 kts 52°
2026-05-05 07:34 35.47621 113.12227 36918 ft 491 kts 52°
2026-05-05 07:35 35.51175 113.19407 36914 ft 492 kts 53°
2026-05-05 07:35 35.54725 113.26602 36915 ft 492 kts 53°
2026-05-05 07:36 35.58267 113.33794 36912 ft 491 kts 53°
2026-05-05 07:36 35.61814 113.40998 36920 ft 492 kts 52°
2026-05-05 07:37 35.65432 113.48143 36931 ft 491 kts 52°
2026-05-05 07:37 35.69058 113.55281 36908 ft 491 kts 52°
2026-05-05 07:38 35.72667 113.62422 36890 ft 491 kts 52°
2026-05-05 07:38 35.76272 113.69582 36886 ft 491 kts 52°
2026-05-05 07:39 35.79875 113.76748 36879 ft 492 kts 52°
2026-05-05 07:39 35.83478 113.83927 36869 ft 492 kts 52°
2026-05-05 07:40 35.87076 113.91119 36851 ft 492 kts 52°
2026-05-05 07:40 35.90644 113.98266 36842 ft 492 kts 52°
2026-05-05 07:41 35.94229 114.05461 36845 ft 492 kts 52°
2026-05-05 07:41 35.97817 114.12672 36831 ft 492 kts 53°
2026-05-05 07:42 36.01392 114.19879 36826 ft 492 kts 53°
2026-05-05 07:42 36.04965 114.27096 36824 ft 492 kts 53°
2026-05-05 07:43 36.08533 114.34318 36816 ft 492 kts 53°
2026-05-05 07:43 36.12100 114.41551 36828 ft 492 kts 53°
2026-05-05 07:44 36.15659 114.48785 36800 ft 492 kts 53°
2026-05-05 07:44 36.17433 114.52399 36444 ft 487 kts 53°
2026-05-05 07:44 36.19175 114.55958 36105 ft 478 kts 53°
2026-05-05 07:45 36.20889 114.59461 35854 ft 473 kts 53°
2026-05-05 07:45 36.22594 114.62943 35595 ft 471 kts 53°
2026-05-05 07:45 36.24293 114.66414 35356 ft 470 kts 53°
2026-05-05 07:45 36.25988 114.69880 35105 ft 469 kts 53°
2026-05-05 07:46 36.27680 114.73343 34861 ft 469 kts 53°
2026-05-05 07:46 36.29355 114.76822 34620 ft 469 kts 53°
2026-05-05 07:46 36.31007 114.80320 34378 ft 469 kts 54°
2026-05-05 07:46 36.32646 114.83826 34141 ft 470 kts 54°
2026-05-05 07:47 36.34177 114.87418 33909 ft 472 kts 58°
2026-05-05 07:47 36.35563 114.91127 33655 ft 474 kts 60°
2026-05-05 07:47 36.36795 114.94940 33378 ft 477 kts 64°
2026-05-05 07:47 36.37867 114.98860 33134 ft 481 kts 67°
2026-05-05 07:48 36.38790 115.02866 32881 ft 483 kts 69°
2026-05-05 07:48 36.39664 115.06898 32558 ft 484 kts 70°
2026-05-05 07:48 36.40532 115.10945 32114 ft 485 kts 70°
2026-05-05 07:48 36.41404 115.15003 31534 ft 487 kts 70°
2026-05-05 07:49 36.42345 115.18989 30869 ft 486 kts 67°
2026-05-05 07:49 36.43454 115.22948 30164 ft 485 kts 65°
2026-05-05 07:49 36.44727 115.26838 29363 ft 486 kts 62°
2026-05-05 07:49 36.46088 115.30689 28546 ft 486 kts 62°
2026-05-05 07:50 36.47458 115.34521 28079 ft 484 kts 62°
2026-05-05 07:50 36.48826 115.38345 27544 ft 482 kts 62°
2026-05-05 07:50 36.50179 115.42142 27066 ft 477 kts 63°
2026-05-05 07:50 36.51514 115.45902 26522 ft 473 kts 63°
2026-05-05 07:51 36.52411 115.48428 26172 ft 471 kts 63°
2026-05-05 07:51 36.54151 115.53344 25492 ft 466 kts 63°
2026-05-05 07:51 36.55456 115.57032 24989 ft 463 kts 63°
2026-05-05 07:51 36.56746 115.60687 24507 ft 459 kts 63°
2026-05-05 07:52 36.58024 115.64316 24064 ft 456 kts 63°
2026-05-05 07:52 36.59296 115.67923 23615 ft 452 kts 63°
2026-05-05 07:52 36.60553 115.71496 23130 ft 448 kts 63°
2026-05-05 07:52 36.61798 115.75044 22649 ft 445 kts 64°
2026-05-05 07:53 36.63033 115.78557 22187 ft 440 kts 64°
2026-05-05 07:53 36.64256 115.82043 21743 ft 436 kts 63°
2026-05-05 07:53 36.65465 115.85496 21321 ft 432 kts 64°
2026-05-05 07:53 36.66666 115.88913 20899 ft 429 kts 64°
2026-05-05 07:54 36.67854 115.92313 20452 ft 426 kts 63°
2026-05-05 07:54 36.69016 115.95642 20030 ft 423 kts 64°
2026-05-05 07:54 36.70202 115.99037 19636 ft 419 kts 64°
2026-05-05 07:54 36.71342 116.02312 19231 ft 416 kts 63°
2026-05-05 07:55 36.72491 116.05621 18802 ft 414 kts 64°
2026-05-05 07:55 36.73638 116.08912 18363 ft 412 kts 63°
2026-05-05 07:55 36.74777 116.12187 17934 ft 410 kts 63°
2026-05-05 07:55 36.75998 116.15392 17286 ft 409 kts 61°
2026-05-05 07:56 36.77331 116.18571 16328 ft 417 kts 60°
2026-05-05 07:56 36.78686 116.21785 15668 ft 418 kts 61°
2026-05-05 07:56 36.80029 116.24995 15087 ft 416 kts 60°
2026-05-05 07:56 36.81362 116.28194 14547 ft 413 kts 61°
2026-05-05 07:57 36.82674 116.31365 14102 ft 409 kts 62°
2026-05-05 07:57 36.83969 116.34521 13528 ft 408 kts 62°
2026-05-05 07:57 36.85262 116.37670 12942 ft 406 kts 62°
2026-05-05 07:57 36.86544 116.40796 12384 ft 402 kts 62°
2026-05-05 07:58 36.87813 116.43896 11936 ft 398 kts 63°
2026-05-05 07:58 36.89061 116.46951 11542 ft 391 kts 63°
2026-05-05 07:58 36.90285 116.49953 11176 ft 384 kts 63°
2026-05-05 07:58 36.91489 116.52908 10813 ft 378 kts 64°
2026-05-05 07:59 36.92671 116.55813 10473 ft 371 kts 64°
2026-05-05 07:59 36.93834 116.58670 10142 ft 365 kts 64°
2026-05-05 07:59 36.94971 116.61471 9914 ft 356 kts 65°
2026-05-05 07:59 36.96084 116.64213 9585 ft 351 kts 65°
2026-05-05 08:00 36.97177 116.66920 9235 ft 346 kts 65°
2026-05-05 08:00 36.97894 116.68693 8986 ft 343 kts 65°
2026-05-05 08:00 36.99328 116.72232 8525 ft 337 kts 65°
2026-05-05 08:00 37.00030 116.73962 8303 ft 335 kts 65°
2026-05-05 08:01 37.01074 116.76545 7987 ft 330 kts 65°
2026-05-05 08:01 37.02435 116.79915 7586 ft 324 kts 65°
2026-05-05 08:01 37.03446 116.82421 7296 ft 320 kts 65°
2026-05-05 08:01 37.04443 116.84895 7017 ft 315 kts 65°
2026-05-05 08:02 37.05107 116.86542 6815 ft 312 kts 65°
2026-05-05 08:02 37.06083 116.88957 6542 ft 308 kts 66°
2026-05-05 08:02 37.07041 116.91343 6275 ft 304 kts 66°
2026-05-05 08:02 37.07989 116.93705 5955 ft 303 kts 66°
2026-05-05 08:03 37.08930 116.96056 5617 ft 301 kts 66°
2026-05-05 08:03 37.09865 116.98385 5344 ft 296 kts 66°
2026-05-05 08:03 37.10785 117.00661 4630 ft 299 kts 65°
2026-05-05 08:03 37.11883 117.03138 2590 ft 353 kts 65°
2026-05-05 08:04 37.12499 117.06125 1334 ft 350 kts 91°
2026-05-05 08:04 37.12518 117.08998 1424 ft 309 kts 95°
2026-05-05 08:04 37.12523 117.11538 1619 ft 275 kts 94°
2026-05-05 08:04 37.12492 117.13818 1601 ft 249 kts 98°
2026-05-05 08:05 37.12426 117.15934 1282 ft 235 kts 98°
2026-05-05 08:05 37.12380 117.17865 1358 ft 203 kts 102°
2026-05-05 08:05 37.12034 117.19373 1488 ft 162 kts 127°
2026-05-05 08:05 37.11301 117.20334 1569 ft 151 kts 149°
2026-05-05 08:06 37.10476 117.21124 1364 ft 146 kts 149°
2026-05-05 08:06 37.09537 117.21489 1110 ft 144 kts 176°
2026-05-05 08:06 37.08533 117.21549 901 ft 143 kts 177°
2026-05-05 08:06 37.07536 117.21555 905 ft 145 kts 181°
2026-05-05 08:07 37.06527 117.21604 892 ft 145 kts 180°
2026-05-05 08:07 37.05516 117.21698 898 ft 145 kts 174°
2026-05-05 08:07 37.04514 117.21795 874 ft 145 kts 177°
2026-05-05 08:07 37.03513 117.21873 856 ft 144 kts 181°
2026-05-05 08:08 37.02507 117.21843 801 ft 144 kts 184°
2026-05-05 08:08 37.01507 117.21741 807 ft 145 kts 185°
2026-05-05 08:08 37.00500 117.21712 793 ft 145 kts 184°
2026-05-05 08:08 36.99490 117.21688 801 ft 145 kts 183°
2026-05-05 08:09 36.98490 117.21569 857 ft 145 kts 191°
2026-05-05 08:09 36.97485 117.21425 873 ft 146 kts 183°
2026-05-05 08:09 36.96472 117.21455 768 ft 145 kts 182°
2026-05-05 08:09 36.95465 117.21483 565 ft 144 kts 179°
2026-05-05 08:10 36.94471 117.21508 430 ft 143 kts 181°
2026-05-05 08:10 36.93493 117.21548 433 ft 143 kts 175°
2026-05-05 08:10 36.92500 117.21594 456 ft 143 kts 177°
2026-05-05 08:10 36.91487 117.21581 355 ft 143 kts 176°
2026-05-05 08:11 36.90508 117.21591 331 ft 143 kts 175°
2026-05-05 08:11 36.89517 117.21616 320 ft 142 kts 178°
2026-05-05 08:11 36.88539 117.21586 256 ft 141 kts 176°
2026-05-05 08:11 36.87555 117.21612 201 ft 142 kts 184°
2026-05-05 08:12 36.86590 117.21601 89 ft 130 kts 179°
2026-05-05 08:12 36.85928 117.21604 91 ft 65 kts 181°
2026-05-05 08:12 36.85610 117.21580 91 ft 24 kts 195°
2026-05-05 08:12 36.85453 117.21499 91 ft 25 kts 208°
2026-05-05 08:13 36.85361 117.21384 91 ft 16 kts 274°
2026-05-05 08:13 36.85370 117.21230 91 ft 19 kts 272°
2026-05-05 08:13 36.85369 117.21049 91 ft 22 kts 270°
2026-05-05 08:13 36.85370 117.20921 91 ft 15 kts 270°
2026-05-05 08:14 36.85371 117.20839 91 ft 0 kts 271°